Powrót do katalogu

STARLINK-31128

AktywnyŁącznośćVLEO
NORAD 58669·PAYLOAD·🇺🇸 United States

Wystrzelony Dec 29, 2023 z Cape Canaveral Space Force Station

Loading…

Następne Przeloty (najbliższe 24 godziny)

TLE

ŚwieżeSource: CelesTrak SupGP

Epoka: Sep 14, 2026, 22:15 UTC

1 58669C 23211C   26257.92756944  .00000525  00000+0  19027-4 0  2572
2 58669  42.9999  96.4811 0001414 274.1696 207.2951 15.27569324    13

Śledź STARLINK-31128 w czasie rzeczywistym z AllMySat

Download on the App Store